ETH379 HCMM-HAAB

Flight info

Callsign ETH379
Flight time 1h 40m
Altitude 34000
Route MOGDU UM313 MAV UQ555 IMKIT IMKIT2A
Aircraft B38M/M-SDE1FGHILORVWXY/HB1

Departure

Time 2026-05-05 20:40
Airport Aden Adde International Airport (HCMM)

Arrival

Time 2026-05-05 22:21
Airport Addis Ababa Bole International Airport (HAAB)
Time Latitude Longitude Altitude Speed Heading
2026-05-05 20:15 2.01727 45.30424 34 ft 0 kts 321°
2026-05-05 20:17 2.01694 45.30367 31 ft 0 kts 318°
2026-05-05 20:29 2.01689 45.30371 34 ft 2 kts 318°
2026-05-05 20:29 2.01677 45.30382 31 ft 2 kts 318°
2026-05-05 20:30 2.01665 45.30393 31 ft 2 kts 340°
2026-05-05 20:30 2.01652 45.30392 31 ft 0 kts 50°
2026-05-05 20:33 2.01660 45.30402 33 ft 3 kts 50°
2026-05-05 20:34 2.01680 45.30426 31 ft 6 kts 50°
2026-05-05 20:34 2.01713 45.30464 31 ft 9 kts 50°
2026-05-05 20:34 2.01757 45.30517 31 ft 11 kts 57°
2026-05-05 20:34 2.01725 45.30576 30 ft 11 kts 143°
2026-05-05 20:35 2.01648 45.30636 23 ft 18 kts 141°
2026-05-05 20:35 2.01634 45.30684 21 ft 7 kts 66°
2026-05-05 20:35 2.01683 45.30746 21 ft 14 kts 50°
2026-05-05 20:35 2.01751 45.30827 21 ft 16 kts 50°
2026-05-05 20:36 2.01824 45.30915 24 ft 17 kts 50°
2026-05-05 20:36 2.01892 45.30997 29 ft 13 kts 51°
2026-05-05 20:36 2.01950 45.31066 31 ft 13 kts 49°
2026-05-05 20:36 2.02007 45.31135 31 ft 14 kts 50°
2026-05-05 20:37 2.02071 45.31210 32 ft 14 kts 42°
2026-05-05 20:37 2.02101 45.31233 32 ft 0 kts 70°
2026-05-05 20:37 2.02098 45.31235 32 ft 1 kts 138°
2026-05-05 20:37 2.02093 45.31233 32 ft 2 kts 205°
2026-05-05 20:38 2.02076 45.31218 31 ft 1 kts 230°
2026-05-05 20:38 2.02070 45.31210 31 ft 0 kts 230°
2026-05-05 20:39 2.02069 45.31209 31 ft 1 kts 230°
2026-05-05 20:39 2.01977 45.31098 31 ft 58 kts 230°
2026-05-05 20:39 2.01539 45.30572 19 ft 136 kts 230°
2026-05-05 20:40 2.00811 45.29698 136 ft 190 kts 230°
2026-05-05 20:40 1.99870 45.28568 708 ft 221 kts 230°
2026-05-05 20:40 1.98734 45.27567 1802 ft 222 kts 212°
2026-05-05 20:40 1.97261 45.27053 2747 ft 232 kts 188°
2026-05-05 20:41 1.95643 45.27208 3730 ft 237 kts 163°
2026-05-05 20:41 1.94185 45.28012 4626 ft 247 kts 143°
2026-05-05 20:41 1.92880 45.29179 5466 ft 257 kts 139°
2026-05-05 20:41 1.91527 45.30426 6143 ft 273 kts 139°
2026-05-05 20:42 1.90083 45.31747 6759 ft 287 kts 139°
2026-05-05 20:42 1.88598 45.33085 7725 ft 286 kts 139°
2026-05-05 20:42 1.87094 45.34398 8631 ft 290 kts 139°
2026-05-05 20:42 1.85680 45.35840 9493 ft 292 kts 122°
2026-05-05 20:43 1.84978 45.37721 10310 ft 292 kts 94°
2026-05-05 20:43 1.85221 45.39763 10825 ft 305 kts 69°
2026-05-05 20:43 1.86379 45.41580 11252 ft 319 kts 44°
2026-05-05 20:43 1.88268 45.42729 11774 ft 331 kts 18°
2026-05-05 20:44 1.90564 45.42885 12437 ft 338 kts 350°
2026-05-05 20:44 1.92738 45.41953 13155 ft 347 kts 324°
2026-05-05 20:44 1.94317 45.40111 13836 ft 354 kts 299°
2026-05-05 20:44 1.95462 45.37918 14418 ft 359 kts 301°
2026-05-05 20:45 1.98044 45.33594 15621 ft 365 kts 303°
2026-05-05 20:45 1.99379 45.31422 16195 ft 368 kts 303°
2026-05-05 20:45 2.00709 45.29232 16781 ft 371 kts 301°
2026-05-05 20:46 2.01969 45.26968 17347 ft 374 kts 300°
2026-05-05 20:46 2.03248 45.24688 17904 ft 377 kts 300°
2026-05-05 20:46 2.04538 45.22403 18410 ft 380 kts 300°
2026-05-05 20:46 2.05837 45.20105 18875 ft 383 kts 300°
2026-05-05 20:47 2.07151 45.17783 19346 ft 385 kts 300°
2026-05-05 20:47 2.08475 45.15444 19800 ft 387 kts 300°
2026-05-05 20:47 2.09808 45.13092 20249 ft 390 kts 300°
2026-05-05 20:47 2.11147 45.10725 20696 ft 392 kts 300°
2026-05-05 20:48 2.12497 45.08340 21141 ft 395 kts 300°
2026-05-05 20:48 2.13853 45.05944 21579 ft 397 kts 300°
2026-05-05 20:48 2.15218 45.03534 22003 ft 400 kts 300°
2026-05-05 20:48 2.16592 45.01107 22439 ft 402 kts 300°
2026-05-05 20:49 2.17974 44.98665 22845 ft 405 kts 300°
2026-05-05 20:49 2.19345 44.96242 23253 ft 407 kts 300°
2026-05-05 20:49 2.20743 44.93773 23632 ft 409 kts 300°
2026-05-05 20:49 2.22148 44.91290 23977 ft 411 kts 300°
2026-05-05 20:50 2.23560 44.88794 24328 ft 413 kts 300°
2026-05-05 20:50 2.24517 44.87104 24564 ft 414 kts 300°
2026-05-05 20:50 2.26400 44.83775 24998 ft 417 kts 300°
2026-05-05 20:50 2.27831 44.81246 25336 ft 419 kts 300°
2026-05-05 20:51 2.29266 44.78709 25671 ft 420 kts 300°
2026-05-05 20:51 2.30710 44.76156 26001 ft 422 kts 300°
2026-05-05 20:51 2.32159 44.73596 26343 ft 424 kts 300°
2026-05-05 20:51 2.33615 44.71022 26660 ft 426 kts 300°
2026-05-05 20:52 2.35078 44.68437 26985 ft 428 kts 300°
2026-05-05 20:52 2.36546 44.65839 27303 ft 430 kts 300°
2026-05-05 20:52 2.38019 44.63236 27625 ft 432 kts 300°
2026-05-05 20:52 2.39502 44.60613 27928 ft 433 kts 300°
2026-05-05 20:53 2.40990 44.57982 28228 ft 435 kts 300°
2026-05-05 20:53 2.42484 44.55341 28530 ft 437 kts 300°
2026-05-05 20:53 2.43982 44.52691 28826 ft 439 kts 300°
2026-05-05 20:53 2.45489 44.50026 29101 ft 441 kts 300°
2026-05-05 20:54 2.47001 44.47352 29386 ft 443 kts 300°
2026-05-05 20:54 2.48503 44.44696 29653 ft 445 kts 300°
2026-05-05 20:54 2.50028 44.41997 29923 ft 446 kts 300°
2026-05-05 20:54 2.51559 44.39290 30163 ft 448 kts 300°
2026-05-05 20:55 2.53097 44.36570 30389 ft 450 kts 300°
2026-05-05 20:55 2.54639 44.33840 30633 ft 451 kts 300°
2026-05-05 20:55 2.56184 44.31108 30849 ft 453 kts 300°
2026-05-05 20:55 2.57737 44.28359 31057 ft 454 kts 300°
2026-05-05 20:56 2.59295 44.25603 31277 ft 456 kts 300°
2026-05-05 20:56 2.60856 44.22841 31497 ft 457 kts 300°
2026-05-05 20:56 2.62425 44.20063 31706 ft 459 kts 300°
2026-05-05 20:56 2.63996 44.17282 31923 ft 460 kts 300°
2026-05-05 20:57 2.65574 44.14490 32135 ft 462 kts 300°
2026-05-05 20:57 2.67157 44.11688 32346 ft 463 kts 300°
2026-05-05 20:57 2.68741 44.08884 32551 ft 464 kts 300°
2026-05-05 20:57 2.70331 44.06070 32810 ft 464 kts 300°
2026-05-05 20:58 2.71381 44.04210 32995 ft 464 kts 300°
2026-05-05 20:58 2.72966 44.01404 33289 ft 463 kts 301°
2026-05-05 20:58 2.74549 43.98601 33585 ft 462 kts 301°
2026-05-05 20:58 2.76128 43.95806 33872 ft 461 kts 301°
2026-05-05 20:59 2.79278 43.90227 33949 ft 459 kts 301°
2026-05-05 20:59 2.82418 43.84665 33951 ft 459 kts 301°
2026-05-05 21:00 2.85560 43.79100 33950 ft 459 kts 301°
2026-05-05 21:00 2.88681 43.73570 33951 ft 459 kts 301°
2026-05-05 21:01 2.91820 43.68007 33956 ft 459 kts 301°
2026-05-05 21:01 2.94959 43.62444 33958 ft 459 kts 301°
2026-05-05 21:02 2.98101 43.56876 33958 ft 459 kts 301°
2026-05-05 21:02 3.01241 43.51309 33962 ft 460 kts 301°
2026-05-05 21:03 3.04386 43.45733 33963 ft 460 kts 301°
2026-05-05 21:03 3.07532 43.40155 33959 ft 460 kts 301°
2026-05-05 21:04 3.10678 43.34576 33961 ft 460 kts 301°
2026-05-05 21:04 3.13824 43.28995 33963 ft 460 kts 301°
2026-05-05 21:05 3.16970 43.23414 33958 ft 461 kts 301°
2026-05-05 21:05 3.20116 43.17832 33953 ft 461 kts 301°
2026-05-05 21:06 3.23263 43.12248 33953 ft 461 kts 301°
2026-05-05 21:06 3.26415 43.06654 33948 ft 461 kts 301°
2026-05-05 21:07 3.29564 43.01063 33946 ft 461 kts 301°
2026-05-05 21:07 3.32714 42.95470 33950 ft 461 kts 301°
2026-05-05 21:08 3.35866 42.89874 33949 ft 461 kts 301°
2026-05-05 21:08 3.39019 42.84273 33946 ft 462 kts 301°
2026-05-05 21:09 3.42153 42.78708 33941 ft 462 kts 301°
2026-05-05 21:09 3.45327 42.73068 33942 ft 462 kts 301°
2026-05-05 21:10 3.48460 42.67500 33937 ft 462 kts 301°
2026-05-05 21:10 3.51614 42.61894 33939 ft 462 kts 301°
2026-05-05 21:11 3.54764 42.56296 33937 ft 462 kts 300°
2026-05-05 21:11 3.57916 42.50692 33936 ft 462 kts 300°
2026-05-05 21:12 3.61067 42.45089 33937 ft 462 kts 300°
2026-05-05 21:12 3.64217 42.39487 33935 ft 462 kts 300°
2026-05-05 21:13 3.67370 42.33878 33930 ft 462 kts 301°
2026-05-05 21:13 3.70004 42.29191 33934 ft 462 kts 300°
2026-05-05 21:14 3.73160 42.23575 33930 ft 463 kts 300°
2026-05-05 21:14 3.76314 42.17964 33935 ft 463 kts 300°
2026-05-05 21:15 3.79350 42.12560 33931 ft 463 kts 301°
2026-05-05 21:15 3.82513 42.06928 33932 ft 463 kts 300°
2026-05-05 21:16 3.85666 42.01313 33931 ft 463 kts 300°
2026-05-05 21:16 3.86198 42.00365 33932 ft 463 kts 300°
2026-05-05 21:17 3.87052 41.98846 33931 ft 463 kts 300°
2026-05-05 21:17 3.90203 41.93233 33933 ft 462 kts 301°
2026-05-05 21:18 3.93354 41.87622 33932 ft 462 kts 301°
2026-05-05 21:18 3.97002 41.82348 33929 ft 461 kts 306°
2026-05-05 21:19 4.00676 41.77085 33939 ft 460 kts 306°
2026-05-05 21:19 4.04308 41.71840 33931 ft 460 kts 306°
2026-05-05 21:20 4.07957 41.66567 33940 ft 460 kts 306°
2026-05-05 21:20 4.11603 41.61298 33943 ft 459 kts 306°
2026-05-05 21:21 4.15244 41.56035 33940 ft 459 kts 306°
2026-05-05 21:21 4.18881 41.50776 33947 ft 459 kts 306°
2026-05-05 21:22 4.22516 41.45520 33948 ft 459 kts 306°
2026-05-05 21:22 4.26146 41.40270 33948 ft 458 kts 306°
2026-05-05 21:23 4.29755 41.35049 33952 ft 458 kts 306°
2026-05-05 21:23 4.33386 41.29794 33958 ft 458 kts 306°
2026-05-05 21:24 4.37019 41.24538 33963 ft 458 kts 306°
2026-05-05 21:24 4.40645 41.19289 33973 ft 458 kts 306°
2026-05-05 21:25 4.44273 41.14036 33970 ft 458 kts 306°
2026-05-05 21:25 4.47899 41.08785 33976 ft 458 kts 306°
2026-05-05 21:26 4.51529 41.03527 33983 ft 459 kts 306°
2026-05-05 21:26 4.55162 40.98265 33983 ft 459 kts 306°
2026-05-05 21:27 4.58794 40.93001 33987 ft 459 kts 306°
2026-05-05 21:27 4.62430 40.87733 33987 ft 459 kts 306°
2026-05-05 21:28 4.66064 40.82464 33992 ft 459 kts 306°
2026-05-05 21:28 4.69696 40.77200 34000 ft 459 kts 305°
2026-05-05 21:29 4.73329 40.71942 33995 ft 459 kts 306°
2026-05-05 21:29 4.76965 40.66686 34002 ft 459 kts 306°
2026-05-05 21:30 4.80601 40.61429 34006 ft 459 kts 306°
2026-05-05 21:30 4.84217 40.56200 34004 ft 459 kts 306°
2026-05-05 21:31 4.87861 40.50930 34012 ft 459 kts 306°
2026-05-05 21:31 4.91501 40.45664 34015 ft 459 kts 306°
2026-05-05 21:32 4.95141 40.40397 34013 ft 459 kts 306°
2026-05-05 21:32 4.98772 40.35142 34009 ft 459 kts 306°
2026-05-05 21:33 5.02410 40.29875 34013 ft 458 kts 306°
2026-05-05 21:33 5.06015 40.24656 34017 ft 458 kts 305°
2026-05-05 21:34 5.09640 40.19405 34023 ft 458 kts 305°
2026-05-05 21:34 5.13262 40.14158 34022 ft 457 kts 305°
2026-05-05 21:35 5.16886 40.08907 34030 ft 458 kts 305°
2026-05-05 21:35 5.20508 40.03657 34031 ft 458 kts 305°
2026-05-05 21:36 5.24134 39.98405 34033 ft 458 kts 305°
2026-05-05 21:36 5.27761 39.93149 34037 ft 457 kts 305°
2026-05-05 21:37 5.31387 39.87892 34039 ft 458 kts 305°
2026-05-05 21:37 5.34992 39.82666 34043 ft 458 kts 305°
2026-05-05 21:38 5.38622 39.77402 34046 ft 458 kts 305°
2026-05-05 21:38 5.42250 39.72140 34048 ft 458 kts 305°
2026-05-05 21:39 5.45876 39.66880 34037 ft 458 kts 305°
2026-05-05 21:39 5.49503 39.61617 34038 ft 458 kts 305°
2026-05-05 21:40 5.53124 39.56360 34047 ft 458 kts 305°
2026-05-05 21:40 5.56746 39.51102 34047 ft 457 kts 305°
2026-05-05 21:41 5.60356 39.45859 34046 ft 457 kts 305°
2026-05-05 21:41 5.64033 39.40662 34034 ft 455 kts 313°
2026-05-05 21:42 5.66374 39.38617 34052 ft 453 kts 328°
2026-05-05 21:42 5.69165 39.37162 34055 ft 454 kts 335°
2026-05-05 21:42 5.74932 39.34498 34054 ft 455 kts 335°
2026-05-05 21:43 5.79746 39.32345 34056 ft 455 kts 336°
2026-05-05 21:43 5.85579 39.29762 34052 ft 456 kts 336°
2026-05-05 21:44 5.91348 39.27210 34048 ft 456 kts 336°
2026-05-05 21:44 5.97159 39.24638 34057 ft 457 kts 336°
2026-05-05 21:45 6.02973 39.22065 34056 ft 457 kts 336°
2026-05-05 21:45 6.08793 39.19489 34063 ft 457 kts 336°
2026-05-05 21:46 6.14624 39.16907 34067 ft 458 kts 336°
2026-05-05 21:46 6.20457 39.14324 34071 ft 458 kts 336°
2026-05-05 21:47 6.26297 39.11737 34090 ft 458 kts 336°
2026-05-05 21:47 6.32147 39.09145 34097 ft 459 kts 336°
2026-05-05 21:48 6.37948 39.06573 34113 ft 459 kts 336°
2026-05-05 21:48 6.43793 39.03982 34128 ft 459 kts 336°
2026-05-05 21:49 6.49635 39.01391 34131 ft 459 kts 336°
2026-05-05 21:49 6.55439 38.98817 34149 ft 459 kts 336°
2026-05-05 21:50 6.61280 38.96226 34156 ft 459 kts 336°
2026-05-05 21:50 6.67120 38.93634 34173 ft 459 kts 336°
2026-05-05 21:51 6.72956 38.91043 34169 ft 458 kts 336°
2026-05-05 21:51 6.78795 38.88451 34182 ft 458 kts 336°
2026-05-05 21:52 6.87511 38.84580 34186 ft 458 kts 336°
2026-05-05 21:53 6.93343 38.81988 34189 ft 458 kts 336°
2026-05-05 21:53 6.99179 38.79395 34184 ft 459 kts 336°
2026-05-05 21:54 7.05023 38.76797 34167 ft 459 kts 336°
2026-05-05 21:54 7.10871 38.74196 34162 ft 459 kts 336°
2026-05-05 21:55 7.16715 38.71597 34158 ft 459 kts 336°
2026-05-05 21:55 7.22566 38.68993 34148 ft 459 kts 336°
2026-05-05 21:56 7.28413 38.66392 34154 ft 459 kts 336°
2026-05-05 21:56 7.34254 38.63791 33961 ft 459 kts 336°
2026-05-05 21:56 7.37176 38.62490 33741 ft 459 kts 336°
2026-05-05 21:57 7.40096 38.61189 33531 ft 459 kts 336°
2026-05-05 21:57 7.43018 38.59888 33316 ft 460 kts 336°
2026-05-05 21:57 7.45946 38.58583 33105 ft 460 kts 336°
2026-05-05 21:57 7.48880 38.57277 32899 ft 461 kts 336°
2026-05-05 21:58 7.51773 38.55987 32694 ft 461 kts 336°
2026-05-05 21:58 7.54748 38.54661 32491 ft 462 kts 336°
2026-05-05 21:58 7.57687 38.53352 32289 ft 462 kts 336°
2026-05-05 21:58 7.60628 38.52041 32092 ft 462 kts 336°
2026-05-05 21:59 7.63575 38.50727 31892 ft 463 kts 336°
2026-05-05 21:59 7.66483 38.49430 31700 ft 464 kts 336°
2026-05-05 21:59 7.69434 38.48114 31507 ft 464 kts 336°
2026-05-05 21:59 7.72390 38.46795 31310 ft 465 kts 336°
2026-05-05 22:00 7.75344 38.45477 31125 ft 465 kts 336°
2026-05-05 22:00 7.78306 38.44155 30934 ft 466 kts 336°
2026-05-05 22:00 7.81267 38.42834 30744 ft 466 kts 336°
2026-05-05 22:00 7.84238 38.41508 30554 ft 467 kts 336°
2026-05-05 22:01 7.87208 38.40182 30372 ft 467 kts 336°
2026-05-05 22:01 7.90184 38.38853 30200 ft 467 kts 336°
2026-05-05 22:01 7.93159 38.37525 30189 ft 468 kts 336°
2026-05-05 22:02 7.99120 38.34862 30189 ft 468 kts 336°
2026-05-05 22:02 8.05082 38.32199 30202 ft 469 kts 336°
2026-05-05 22:03 8.11053 38.29530 30209 ft 469 kts 336°
2026-05-05 22:03 8.14042 38.28194 30090 ft 469 kts 336°
2026-05-05 22:03 8.16925 38.26657 29819 ft 468 kts 324°
2026-05-05 22:03 8.19287 38.24405 29486 ft 468 kts 307°
2026-05-05 22:04 8.20901 38.21556 29164 ft 470 kts 291°
2026-05-05 22:04 8.21711 38.18361 28856 ft 472 kts 279°
2026-05-05 22:04 8.22487 38.15144 28519 ft 472 kts 292°
2026-05-05 22:04 8.24057 38.12300 28214 ft 472 kts 308°
2026-05-05 22:05 8.26339 38.09926 27843 ft 473 kts 319°
2026-05-05 22:05 8.28783 38.07755 27386 ft 465 kts 319°
2026-05-05 22:05 8.31206 38.05621 26928 ft 458 kts 319°
2026-05-05 22:05 8.33599 38.03536 26488 ft 451 kts 320°
2026-05-05 22:06 8.35961 38.01489 26048 ft 444 kts 320°
2026-05-05 22:06 8.38490 37.99744 25595 ft 438 kts 335°
2026-05-05 22:06 8.40049 37.99039 25370 ft 434 kts 336°
2026-05-05 22:06 8.42777 37.97760 24946 ft 429 kts 337°
2026-05-05 22:07 8.45627 37.96987 24510 ft 423 kts 356°
2026-05-05 22:07 8.48526 37.97201 24104 ft 416 kts 15°
2026-05-05 22:07 8.51154 37.98332 23676 ft 411 kts 33°
2026-05-05 22:07 8.53284 38.00229 23172 ft 407 kts 52°
2026-05-05 22:08 8.54687 38.02684 22686 ft 403 kts 67°
2026-05-05 22:08 8.55822 38.05265 22192 ft 400 kts 65°
2026-05-05 22:08 8.56955 38.07818 21728 ft 397 kts 66°
2026-05-05 22:08 8.57921 38.10418 21249 ft 394 kts 76°
2026-05-05 22:09 8.58608 38.13082 20786 ft 390 kts 75°
2026-05-05 22:09 8.59332 38.15713 20345 ft 387 kts 74°
2026-05-05 22:09 8.60064 38.18317 19899 ft 384 kts 74°
2026-05-05 22:09 8.60796 38.20895 19462 ft 380 kts 74°
2026-05-05 22:10 8.61527 38.23453 19029 ft 377 kts 74°
2026-05-05 22:10 8.62251 38.25985 18618 ft 373 kts 74°
2026-05-05 22:10 8.62958 38.28458 18198 ft 369 kts 75°
2026-05-05 22:10 8.63646 38.30933 17761 ft 364 kts 75°
2026-05-05 22:11 8.64328 38.33387 17330 ft 360 kts 75°
2026-05-05 22:11 8.65003 38.35814 16901 ft 357 kts 75°
2026-05-05 22:11 8.65671 38.38215 16471 ft 353 kts 75°
2026-05-05 22:11 8.66331 38.40588 16065 ft 349 kts 75°
2026-05-05 22:12 8.66985 38.42939 15654 ft 346 kts 75°
2026-05-05 22:12 8.67632 38.45266 15250 ft 342 kts 74°
2026-05-05 22:12 8.68273 38.47574 14846 ft 339 kts 74°
2026-05-05 22:12 8.69155 38.49764 14437 ft 337 kts 56°
2026-05-05 22:13 8.70790 38.51405 14064 ft 327 kts 35°
2026-05-05 22:13 8.72612 38.52683 13756 ft 311 kts 37°
2026-05-05 22:13 8.74320 38.53945 13512 ft 297 kts 38°
2026-05-05 22:13 8.75961 38.55127 13258 ft 282 kts 34°
2026-05-05 22:14 8.77601 38.56131 13041 ft 268 kts 32°
2026-05-05 22:14 8.79171 38.57060 12818 ft 255 kts 32°
2026-05-05 22:14 8.80655 38.57930 12686 ft 236 kts 32°
2026-05-05 22:14 8.82016 38.58723 12580 ft 219 kts 32°
2026-05-05 22:15 8.83298 38.59467 12314 ft 212 kts 32°
2026-05-05 22:15 8.84565 38.60198 12014 ft 206 kts 32°
2026-05-05 22:15 8.85764 38.60881 11713 ft 188 kts 32°
2026-05-05 22:15 8.86849 38.61490 11416 ft 173 kts 32°
2026-05-05 22:16 8.87899 38.62073 11121 ft 171 kts 32°
2026-05-05 22:16 8.88936 38.62642 10814 ft 169 kts 32°
2026-05-05 22:16 8.89966 38.63196 10528 ft 166 kts 31°
2026-05-05 22:16 8.90965 38.63742 10301 ft 165 kts 33°
2026-05-05 22:17 8.91986 38.64312 10254 ft 167 kts 35°
2026-05-05 22:17 8.92893 38.65035 10349 ft 165 kts 49°
2026-05-05 22:17 8.93532 38.65986 10349 ft 163 kts 66°
2026-05-05 22:17 8.93880 38.67068 10217 ft 162 kts 75°
2026-05-05 22:18 8.94188 38.68164 10003 ft 162 kts 73°
2026-05-05 22:18 8.94508 38.69255 9779 ft 161 kts 73°
2026-05-05 22:18 8.94828 38.70345 9533 ft 162 kts 73°
2026-05-05 22:18 8.95152 38.71438 9317 ft 162 kts 72°
2026-05-05 22:19 8.95476 38.72530 9091 ft 163 kts 73°
2026-05-05 22:19 8.95803 38.73634 8873 ft 164 kts 73°
2026-05-05 22:19 8.96135 38.74743 8627 ft 164 kts 72°
2026-05-05 22:19 8.96467 38.75840 8334 ft 166 kts 72°
2026-05-05 22:20 8.96800 38.76944 8053 ft 160 kts 72°
2026-05-05 22:20 8.97123 38.78015 7812 ft 156 kts 72°
2026-05-05 22:20 8.97427 38.79015 7624 ft 135 kts 73°
2026-05-05 22:20 8.97620 38.79679 7618 ft 65 kts 73°
2026-05-05 22:21 8.97722 38.80026 7618 ft 48 kts 73°
2026-05-05 22:21 8.97815 38.80345 7615 ft 46 kts 73°
2026-05-05 22:21 8.97940 38.80631 7612 ft 43 kts 50°
2026-05-05 22:21 8.98106 38.80739 7615 ft 12 kts 327°
2026-05-05 22:22 8.98108 38.80663 7616 ft 15 kts 253°
2026-05-05 22:22 8.98074 38.80542 7617 ft 20 kts 254°
2026-05-05 22:22 8.98033 38.80405 7619 ft 20 kts 253°
2026-05-05 22:22 8.97995 38.80277 7620 ft 18 kts 253°
2026-05-05 22:23 8.97959 38.80155 7620 ft 19 kts 253°
2026-05-05 22:23 8.97923 38.80029 7620 ft 19 kts 254°
2026-05-05 22:23 8.97888 38.79906 7620 ft 18 kts 253°
2026-05-05 22:23 8.97885 38.79837 7620 ft 4 kts 312°
2026-05-05 22:24 8.97920 38.79817 7620 ft 8 kts 343°
2026-05-05 22:24 8.97985 38.79799 7620 ft 11 kts 344°
2026-05-05 22:24 8.98060 38.79777 7619 ft 12 kts 343°
2026-05-05 22:24 8.98140 38.79753 7619 ft 12 kts 342°
2026-05-05 22:25 8.98176 38.79698 7619 ft 7 kts 279°
2026-05-05 22:25 8.98199 38.79671 7619 ft 3 kts 344°
2026-05-05 22:25 8.98219 38.79665 7619 ft 3 kts 344°
2026-05-05 22:25 8.98244 38.79658 7619 ft 4 kts 344°
2026-05-05 22:26 8.98254 38.79655 7619 ft 0 kts 344°